Location: Walnut Point State Park
(39.6958°N, 88.0345°W)
Time: 13:25:54
(UTC-05:00)

Cosmos 1833 Rocket - Visible Passes

Search period start: 20 April 2014 00:00
Search period end: 30 April 2014 00:00
Orbit: 831 x 842 km, 71.0° (Epoch: 20 April)

Date Brightness Start Highest point End Pass type
(mag) Time Alt. Az. Time Alt. Az. Time Alt. Az.
20 Apr 5.0 00:08:04 10° NNE 00:10:50 15° NE 00:10:50 15° NE visible
20 Apr 4.5 01:50:23 10° NNW 01:52:31 24° NNW 01:52:31 24° NNW visible
20 Apr 5.0 23:51:42 10° NNE 23:54:24 14° NE 23:54:24 14° NE visible
21 Apr 4.5 01:33:48 10° NNW 01:36:05 25° NNW 01:36:05 25° NNW visible
21 Apr 5.0 23:35:22 10° NNE 23:37:59 13° NE 23:37:59 13° NE visible
22 Apr 4.5 01:17:14 10° NNW 01:19:40 27° NNW 01:19:40 27° NNW visible
22 Apr 5.1 23:19:05 10° NNE 23:21:25 13° NE 23:21:37 12° NE visible
23 Apr 4.4 01:00:40 10° NNW 01:03:18 29° NNW 01:03:18 29° NNW visible
23 Apr 5.1 23:02:53 10° NNE 23:04:46 12° NE 23:05:16 11° NE visible
24 Apr 4.3 00:44:06 10° NNW 00:46:57 31° NNW 00:46:57 31° NNW visible
24 Apr 5.1 22:46:52 10° NNE 22:48:06 11° NE 22:48:56 10° NE visible
25 Apr 4.2 00:27:33 10° NNW 00:30:38 33° N 00:30:38 33° N visible
26 Apr 4.0 00:10:59 10° NNW 00:14:20 35° N 00:14:20 35° N visible
26 Apr 3.9 23:54:26 10° NNW 23:58:04 38° N 23:58:04 38° N visible
27 Apr 5.2 01:39:34 10° NW 01:39:45 11° WNW 01:39:45 11° WNW visible
27 Apr 3.8 23:37:54 10° NNW 23:41:49 40° NNE 23:41:49 40° NNE visible
28 Apr 5.1 01:22:48 10° NW 01:23:31 13° WNW 01:23:31 13° WNW visible
28 Apr 3.6 23:21:21 10° NNW 23:25:35 41° NNE 23:25:35 41° NNE visible
29 Apr 5.0 01:06:04 10° NW 01:07:17 15° WNW 01:07:17 15° WNW visible
29 Apr 3.5 23:04:49 10° N 23:09:23 41° NE 23:09:23 41° NE visible
